DW1024 Weather Reports


time (UTC)temp
C
wind
direction
speed
KPH
gust
KPH
rain 1hr
cm
rain 24hr
cm
rain mn
cm
humidity
%
barometer
mb
20260903113207 25 217 6.4 17.7 0.00 0.00 0.00 48 1023.4
20260903111702 26 221 6.4 22.5 0.00 0.00 0.00 49 1023.5
20260903110202 26 287 6.4 20.9 0.00 0.00 0.00 49 1023.5
20260903104706 26 254 6.4 22.5 0.00 0.00 0.00 49 1023.6
20260903103205 25 194 8.0 24.1 0.00 0.00 0.00 52 1023.6
20260903101703 25 281 4.8 16.1 0.00 0.00 0.00 52 1023.6
20260903094703 24 178 6.4 16.1 0.00 0.00 0.00 54 1023.9
20260903093202 24 212 6.4 19.3 0.00 0.00 0.00 55 1023.9
20260903091704 23 219 6.4 16.1 0.00 0.00 0.00 56 1024.3
20260903090203 23 302 4.8 17.7 0.00 0.00 0.00 56 1024.1
20260903084704 23 288 3.2 11.3 0.00 0.00 0.00 55 1024.1
20260903083203 22 132 3.2 12.9 0.00 0.00 0.00 57 1024.1
20260903081707 22 246 3.2 12.9 0.00 0.00 0.00 60 1023.9
20260903080205 22 304 3.2 11.3 0.00 0.00 0.00 62 1023.9
20260903073203 20 348 3.2 12.9 0.00 0.00 0.00 69 1024.3
20260903071703 20 290 3.2 9.7 0.00 0.00 0.00 70 1024.4
20260903064702 18 219 0.0 4.8 0.00 0.00 0.00 75 1024.2
20260903063202 17 277 1.6 6.4 0.00 0.00 0.00 78 1024.2
20260903061702 16 200 1.6 4.8 0.00 0.00 0.00 81 1024.0
20260903060200 15 269 1.6 4.8 0.00 0.00 0.00 83 1023.9
20260903053203 15 253 0.0 0.0 0.00 0.00 0.00 88 1023.7
20260903051700 13 253 0.0 0.0 0.00 0.00 0.00 91 1023.7
20260903050203 13 253 0.0 0.0 0.00 0.00 0.00 91 1023.6
20260903044704 12 253 0.0 0.0 0.00 0.00 0.00 91 1023.6
20260903043201 12 253 0.0 0.0 0.00 0.00 0.00 90 1023.6
20260903041704 13 253 0.0 0.0 0.00 0.00 0.00 89 1023.6
20260903040201 13 253 0.0 0.0 0.00 0.00 0.00 87 1023.6
20260903034706 14 253 0.0 0.0 0.00 0.00 0.00 86 1023.6
20260903033202 15 253 0.0 0.0 0.00 0.00 0.00 84 1023.7
20260903030204 15 253 0.0 0.0 0.00 0.00 0.00 83 1023.6
20260903024702 15 253 0.0 0.0 0.00 0.00 0.00 82 1023.6
20260903023201 15 253 0.0 0.0 0.00 0.00 0.00 82 1023.6
20260903021700 15 253 0.0 0.0 0.00 0.00 0.00 82 1023.7
20260903020201 15 253 0.0 0.0 0.00 0.00 0.00 81 1023.6
20260903014703 15 253 0.0 1.6 0.00 0.00 0.00 80 1023.6
20260903013202 15 253 0.0 3.2 0.00 0.00 0.00 80 1023.6
20260903011701 15 253 0.0 0.0 0.00 0.00 0.00 82 1023.6
20260903010205 15 253 0.0 0.0 0.00 0.00 0.00 81 1023.4
20260903004707 15 253 0.0 0.0 0.00 0.00 0.00 83 1023.5
20260903001702 15 253 0.0 0.0 0.00 0.00 0.00 82 1023.4
20260903000204 15 253 0.0 0.0 0.00 0.00 0.00 81 1023.4
20260902234701 16 253 0.0 0.0 0.00 0.00 0.00 80 1023.4
20260902233203 16 253 0.0 0.0 0.00 0.00 0.00 78 1023.4
20260902231702 16 253 0.0 1.6 0.00 0.00 0.00 77 1023.4
20260902230201 16 253 0.0 1.6 0.00 0.00 0.00 77 1023.4
20260902224701 16 253 0.0 3.2 0.00 0.00 0.00 75 1023.5
20260902221703 17 253 0.0 1.6 0.00 0.00 0.00 74 1023.2
20260902220202 17 253 0.0 0.0 0.00 0.00 0.00 74 1023.1
20260902214706 16 253 0.0 0.0 0.00 0.00 0.00 77 1023.0
20260902213204 16 253 0.0 0.0 0.00 0.00 0.00 79 1022.8
20260902211702 16 253 0.0 0.0 0.00 0.00 0.00 79 1022.7
20260902210201 16 253 0.0 0.0 0.00 0.00 0.00 77 1022.6
20260902204700 17 253 0.0 0.0 0.00 0.00 0.00 74 1022.6
20260902203203 17 253 0.0 1.6 0.00 0.00 0.00 72 1022.6
20260902200159 18 253 0.0 0.0 0.00 0.00 0.00 69 1022.6
20260902194658 18 253 0.0 0.0 0.00 0.00 0.00 69 1022.4
20260902193159 18 253 0.0 0.0 0.00 0.00 0.00 66 1022.3
20260902191657 20 253 0.0 0.0 0.00 0.00 0.00 62 1022.2
20260902190155 20 253 0.0 1.6 0.00 0.00 0.00 61 1022.1
20260902181655 21 254 0.0 4.8 0.00 0.00 0.00 58 1022.0
20260902180200 21 284 0.0 0.0 0.00 0.00 0.00 60 1021.6
20260902174655 21 284 0.0 1.6 0.00 0.00 0.00 59 1021.4
20260902173200 22 284 0.0 4.8 0.00 0.00 0.00 54 1021.4
20260902171657 23 289 0.0 3.2 0.00 0.00 0.00 53 1021.3
20260902164653 23 43 1.6 11.3 0.00 0.00 0.00 51 1021.3
20260902163154 23 207 1.6 11.3 0.00 0.00 0.00 51 1021.2
20260902161653 24 207 4.8 12.9 0.00 0.00 0.00 49 1021.2
20260902160153 25 282 1.6 6.4 0.00 0.00 0.00 48 1021.1
20260902154656 25 223 3.2 12.9 0.00 0.00 0.00 48 1021.0
20260902150152 25 326 4.8 14.5 0.00 0.00 0.00 44 1021.4
20260902143154 26 257 4.8 16.1 0.00 0.00 0.00 43 1021.4
20260902141652 26 167 1.6 11.3 0.00 0.00 0.00 43 1021.6
20260902140155 26 134 4.8 19.3 0.00 0.00 0.00 42 1021.6
20260902134759 26 165 6.4 19.3 0.00 0.00 0.00 44 1021.6
20260902130155 26 242 3.2 12.9 0.00 0.00 0.00 44 1022.0
20260902124656 26 153 3.2 14.5 0.00 0.00 0.00 49 1022.0
20260902123154 26 310 3.2 11.3 0.00 0.00 0.00 46 1022.1
20260902121656 26 282 3.2 8.0 0.00 0.00 0.00 47 1022.0
20260902120155 25 16 3.2 11.3 0.00 0.00 0.00 49 1022.1
20260902114656 24 240 3.2 9.7 0.00 0.00 0.00 52 1022.3